P/2001 CV8 ( LINEAR ) 2008

Japanese version
Home page
Total 6,336 html files since Dec. 4, 1995
Updated on July 28, 2008

---------------------------------------------------------------------

* Profile

* Orbital Elements

Perturbed ephemeris below is based on elements from MPC 42665. 

 Epoch = 2454760.50000 TT   T = 2454750.84967 TT
 Peri. =  151.60313         a =     3.8859691 AU
 Node  =  359.89213 J2000.0 e =     0.4441620
 Incl. =    9.03571         q =     2.1599695 AU

* Magnitudes Graph

        m1 = 2.0 + 5 log d + 45 log r

---------------------------------------------------------------------

The orbital elements are calculated using the Minor Planet & Comet Ephemeris Service.
The magnitudes graphs are made with Comet for Windows.

---------------------------------------------------------------------

Copyright(C) 1995-2008 Seiichi Yoshida (comet@aerith.net). All rights reserved.